Weather History for KHGR - May, 2013

Change the Weather History Date:

Monday, May 13, 2013

  Actual Average Record
Temperature  
Mean Temperature 50 °F 61 °F  
Max Temperature 57 °F 71 °F 88 °F (2014)
Min Temperature 42 °F 51 °F 39 °F (2008)
Degree Days  
Heating Degree Days 15 5  
Month to date heating degree days 85 88  
Since 1 July heating degree days 4869 5102  
Cooling Degree Days 0 1  
Month to date cooling degree days 3 13  
Year to date cooling degree days 29 28  
Moisture  
Dew Point 27 °F    
Average Humidity 45    
Maximum Humidity 62    
Minimum Humidity 27    
Precipitation  
Precipitation 0.00 in 0.12 in 0.81 in (2000)
Month to date precipitation 1.50 1.56  
Year to date precipitation 9.46 13.73  
Sea Level Pressure  
Sea Level Pressure 30.11 in    
Wind  
Wind Speed 11 mph (WNW)    
Max Wind Speed 23 mph    
Max Gust Speed 31 mph    
Visibility 10 miles    
Events      
T = Trace of Precipitation, MM = Missing Value Source: NWS Daily Summary

Daily Weather History Graph

Daily Weather History Graph

Search for Another Location

Airport or City:

Trip Planner

Search our weather history database for the weather conditions in past years. The results will help you decide how hot, cold, wet, or windy it might be!

Date:

Astronomy

May. 13, 2013 Rise Set
Actual Time 5:58 AM EDT 8:17 PM EDT
Civil Twilight 5:27 AM EDT 8:47 PM EDT
Nautical Twilight 4:50 AM EDT 9:24 PM EDT
Astronomical Twilight 4:09 AM EDT 10:06 PM EDT
Moon 8:42 AM EDT (5/13) 11:24 PM EDT (5/13)
Length of Visible Light 15h 19m
Length of Day
14h 18m
Waxing Crescent, 12% of the Moon is Illuminated
May 13
Waxing Crescent
May 18
First Quarter
May 25
Full
May 31
Last Quarter
Jun 8
New

Hourly Weather History & Observations

Time (EDT) Temp. Windchill Dew Point Humidity Pressure Visibility Wind Dir Wind Speed Gust Speed Precip Events Conditions
12:53 AM 45.0 °F 41.8 °F 28.9 °F 53% 30.06 in 10.0 mi West 5.8 mph - N/A   Clear
1:53 AM 45.0 °F - 28.9 °F 53% 30.06 in 10.0 mi Calm Calm - N/A   Clear
2:53 AM 44.1 °F 42.5 °F 30.0 °F 58% 30.05 in 10.0 mi SSW 3.5 mph - N/A   Clear
3:53 AM 43.0 °F 39.5 °F 30.0 °F 60% 30.06 in 10.0 mi SSW 5.8 mph - N/A   Clear
4:53 AM 44.1 °F 38.6 °F 28.9 °F 55% 30.06 in 10.0 mi West 10.4 mph - N/A   Clear
5:53 AM 44.1 °F 40.8 °F 27.0 °F 51% 30.07 in 10.0 mi WSW 5.8 mph - N/A   Clear
6:53 AM 44.1 °F 40.8 °F 27.0 °F 51% 30.09 in 10.0 mi West 5.8 mph - N/A   Clear
7:53 AM 45.0 °F 40.6 °F 30.9 °F 58% 30.12 in 10.0 mi NW 8.1 mph - N/A   Clear
8:53 AM 46.9 °F - 28.9 °F 50% 30.14 in 10.0 mi NW 11.5 mph - N/A   Clear
9:53 AM 48.0 °F - 27.0 °F 44% 30.14 in 10.0 mi WNW 13.8 mph - N/A   Partly Cloudy
10:53 AM 48.9 °F - 26.1 °F 41% 30.15 in 10.0 mi WNW 12.7 mph 21.9 mph N/A   Mostly Cloudy
11:53 AM 50.0 °F - 26.1 °F 39% 30.15 in 10.0 mi NW 13.8 mph 19.6 mph N/A   Mostly Cloudy
12:53 PM 54.0 °F - 26.1 °F 34% 30.13 in 10.0 mi WNW 19.6 mph 26.5 mph N/A   Scattered Clouds
1:53 PM 54.0 °F - 23.0 °F 30% 30.12 in 10.0 mi West 20.7 mph 24.2 mph N/A   Scattered Clouds
2:53 PM 54.0 °F - 21.9 °F 29% 30.11 in 10.0 mi WNW 19.6 mph 29.9 mph N/A   Scattered Clouds
4:53 PM 55.9 °F - 24.1 °F 29% 30.10 in 10.0 mi NW 13.8 mph 24.2 mph N/A   Mostly Cloudy
5:53 PM 53.1 °F - 23.0 °F 31% 30.10 in 10.0 mi WNW 15.0 mph - N/A   Scattered Clouds
6:53 PM 53.1 °F - 25.0 °F 34% 30.11 in 10.0 mi NNW 11.5 mph - N/A   Scattered Clouds
8:53 PM 46.9 °F - 26.1 °F 44% 30.14 in 10.0 mi North 5.8 mph - N/A   Clear
9:53 PM 46.0 °F 44.8 °F 26.1 °F 46% 30.17 in 10.0 mi NNW 3.5 mph - N/A   Clear
10:53 PM 45.0 °F - 27.0 °F 49% 30.19 in 10.0 mi Calm Calm - N/A   Clear
11:53 PM 43.0 °F 41.3 °F 28.0 °F 56% 30.21 in 10.0 mi NW 3.5 mph - N/A   Clear